When you browse on this site, cookies collect data to enhance your experience and personalize the content and advertising you see.
Visit our Privacy Policy to learn more. By continuing to use the site, you agree to this use of cookies and data.
  • In Switzerland
  • List of Countries
  • For 7 days
  • Water Temperature
  • Satellite Maps
  • Weather Map
  • Weather Widgets
  • user-avatar
    Login

    Hourly Weather Andora

    Today, 25 June, Tuesday

    Time Temperature Precipitation Wind Pressure Humidity
    00:00 +15°C° 0 mm 2 mps 626 mmHg 50%
    01:00 +15°C° 0 mm 2 mps 626 mmHg 49%
    02:00 +14°C° 0 mm 2 mps 626 mmHg 49%
    03:00 +14°C° 0 mm 2 mps 626 mmHg 49%
    04:00 +15°C° 0 mm 2 mps 627 mmHg 49%
    05:00 +16°C° 0 mm 2 mps 627 mmHg 49%
    06:00 +18°C° 0 mm 1 mps 628 mmHg 50%
    07:00 +20°C° 0 mm 2 mps 629 mmHg 45%
    08:00 +23°C° 0 mm 2 mps 630 mmHg 41%
    09:00 +25°C° 0 mm 2 mps 631 mmHg 36%
    10:00 +27°C° 0 mm 2 mps 631 mmHg 33%
    11:00 +28°C° 0 mm 2 mps 632 mmHg 31%
    12:00 +29°C° 0 mm 3 mps 632 mmHg 28%
    13:00 +29°C° 0 mm 2 mps 632 mmHg 28%
    14:00 +29°C° 0 mm 2 mps 632 mmHg 29%
    15:00 +29°C° 0 mm 2 mps 632 mmHg 30%
    16:00 +28°C° 0 mm 2 mps 631 mmHg 37%
    17:00 +27°C° 0 mm 1 mps 631 mmHg 45%
    18:00 +26°C° 0 mm 1 mps 631 mmHg 53%
    19:00 +23°C° 0 mm 1 mps 630 mmHg 56%
    20:00 +21°C° 0 mm 1 mps 630 mmHg 59%
    21:00 +18°C° 0 mm 2 mps 629 mmHg 63%
    22:00 +18°C° 0 mm 2 mps 629 mmHg 61%
    23:00 +17°C° 0 mm 2 mps 629 mmHg 58%

    Tomorrow, 26 June, Wednesday

    Time Temperature Precipitation Wind Pressure Humidity
    00:00 +17°C° 0 mm 2 mps 629 mmHg 56%
    01:00 +17°C° 0 mm 2 mps 629 mmHg 52%
    02:00 +17°C° 0 mm 2 mps 629 mmHg 48%
    03:00 +16°C° 0 mm 2 mps 629 mmHg 44%
    04:00 +17°C° 0 mm 2 mps 629 mmHg 44%
    05:00 +18°C° 0 mm 2 mps 630 mmHg 43%
    06:00 +19°C° 0 mm 2 mps 630 mmHg 42%
    07:00 +23°C° 0 mm 2 mps 631 mmHg 36%
    08:00 +26°C° 0 mm 3 mps 632 mmHg 29%
    09:00 +28°C° 0 mm 3 mps 633 mmHg 23%
    10:00 +29°C° 0 mm 4 mps 633 mmHg 22%
    11:00 +30°C° 0 mm 4 mps 634 mmHg 21%
    12:00 +32°C° 0 mm 4 mps 634 mmHg 20%
    13:00 +32°C° 0 mm 4 mps 634 mmHg 21%
    14:00 +30°C° 0 mm 4 mps 633 mmHg 22%
    15:00 +30°C° 0 mm 4 mps 633 mmHg 23%
    16:00 +29°C° 0 mm 3 mps 633 mmHg 29%
    17:00 +27°C° 0 mm 2 mps 632 mmHg 36%
    18:00 +26°C° 0 mm 2 mps 631 mmHg 42%
    19:00 +24°C° 0 mm 2 mps 631 mmHg 44%
    20:00 +21°C° 0 mm 2 mps 631 mmHg 45%
    21:00 +19°C° 0 mm 2 mps 630 mmHg 46%
    22:00 +19°C° 0 mm 2 mps 630 mmHg 42%
    23:00 +19°C° 0 mm 2 mps 630 mmHg 39%

    Day after tomorrow, 27 June, Thursday

    Time Temperature Precipitation Wind Pressure Humidity
    00:00 +18°C° 0 mm 2 mps 630 mmHg 35%
    01:00 +18°C° 0 mm 2 mps 630 mmHg 33%
    02:00 +18°C° 0 mm 2 mps 630 mmHg 31%
    03:00 +18°C° 0 mm 2 mps 630 mmHg 29%
    04:00 +19°C° 0 mm 2 mps 630 mmHg 31%
    05:00 +20°C° 0 mm 2 mps 631 mmHg 34%
    06:00 +22°C° 0 mm 1 mps 631 mmHg 37%
    07:00 +24°C° 0 mm 1 mps 632 mmHg 32%
    08:00 +27°C° 0 mm 1 mps 633 mmHg 26%
    09:00 +30°C° 0 mm 1 mps 635 mmHg 21%
    10:00 +31°C° 0 mm 1 mps 635 mmHg 20%
    11:00 +32°C° 0 mm 1 mps 635 mmHg 18%
    12:00 +34°C° 0 mm 2 mps 635 mmHg 16%
    13:00 +34°C° 0 mm 2 mps 635 mmHg 17%
    14:00 +33°C° 0 mm 1 mps 634 mmHg 18%
    15:00 +32°C° 0 mm 1 mps 634 mmHg 19%
    16:00 +31°C° 0 mm 1 mps 633 mmHg 26%
    17:00 +29°C° 0 mm 1 mps 632 mmHg 33%
    18:00 +28°C° 0 mm 1 mps 632 mmHg 40%
    19:00 +26°C° 0 mm 1 mps 631 mmHg 40%
    20:00 +24°C° 0 mm 1 mps 630 mmHg 40%
    21:00 +21°C° 0 mm 1 mps 630 mmHg 39%
    22:00 +21°C° 0 mm 1 mps 630 mmHg 37%
    23:00 +20°C° 0 mm 2 mps 629 mmHg 34%

    28 June, Friday

    Time Temperature Precipitation Wind Pressure Humidity
    00:00 +20°C° 0 mm 2 mps 629 mmHg 32%
    01:00 +20°C° 0 mm 2 mps 629 mmHg 32%
    02:00 +19°C° 0 mm 2 mps 629 mmHg 32%
    03:00 +19°C° 0 mm 2 mps 628 mmHg 33%
    04:00 +20°C° 0 mm 2 mps 629 mmHg 35%
    05:00 +20°C° 0 mm 2 mps 629 mmHg 37%
    06:00 +21°C° 0 mm 2 mps 629 mmHg 39%
    07:00 +25°C° 0 mm 1 mps 630 mmHg 33%
    08:00 +28°C° 0 mm 1 mps 631 mmHg 26%
    09:00 +31°C° 0 mm 1 mps 633 mmHg 19%
    10:00 +32°C° 0 mm 1 mps 633 mmHg 18%
    11:00 +32°C° 0 mm 1 mps 633 mmHg 17%
    12:00 +33°C° 0 mm 1 mps 633 mmHg 16%
    13:00 +33°C° 0 mm 1 mps 632 mmHg 17%
    14:00 +32°C° 0 mm 2 mps 632 mmHg 19%
    15:00 +32°C° 0 mm 2 mps 631 mmHg 20%
    16:00 +30°C° 0 mm 2 mps 630 mmHg 28%
    17:00 +29°C° 0 mm 2 mps 630 mmHg 36%
    18:00 +27°C° 0 mm 1 mps 629 mmHg 44%
    19:00 +25°C° 0 mm 1 mps 629 mmHg 44%
    20:00 +23°C° 0 mm 1 mps 628 mmHg 44%
    21:00 +21°C° 0 mm 1 mps 628 mmHg 44%
    22:00 +21°C° 0 mm 1 mps 628 mmHg 43%
    23:00 +21°C° 0 mm 1 mps 628 mmHg 42%

    29 June, Saturday

    Time Temperature Precipitation Wind Pressure Humidity
    00:00 +20°C° 0 mm 1 mps 627 mmHg 41%
    01:00 +20°C° 0 mm 1 mps 627 mmHg 40%
    02:00 +20°C° 0 mm 1 mps 627 mmHg 38%
    03:00 +20°C° 0 mm 1 mps 627 mmHg 37%
    04:00 +21°C° 0 mm 1 mps 627 mmHg 38%
    05:00 +21°C° 0 mm 1 mps 628 mmHg 40%
    06:00 +22°C° 0 mm 1 mps 628 mmHg 42%
    07:00 +25°C° 0 mm 1 mps 629 mmHg 35%
    08:00 +27°C° 0 mm 1 mps 630 mmHg 29%
    09:00 +30°C° 0 mm 2 mps 631 mmHg 22%
    10:00 +31°C° 0 mm 2 mps 631 mmHg 21%
    11:00 +31°C° 0 mm 2 mps 632 mmHg 20%
    12:00 +32°C° 0 mm 2 mps 632 mmHg 19%
    13:00 +32°C° 0 mm 2 mps 631 mmHg 21%
    14:00 +31°C° 0 mm 2 mps 631 mmHg 24%
    15:00 +31°C° 0 mm 2 mps 631 mmHg 26%
    16:00 +29°C° 0 mm 2 mps 630 mmHg 34%
    17:00 +28°C° 0 mm 1 mps 630 mmHg 42%
    18:00 +27°C° 0 mm 1 mps 630 mmHg 49%
    19:00 +25°C° 0 mm 1 mps 629 mmHg 54%
    20:00 +22°C° 0 mm 1 mps 629 mmHg 58%
    21:00 +20°C° 0 mm 1 mps 628 mmHg 63%
    22:00 +20°C° 0 mm 1 mps 628 mmHg 60%
    23:00 +20°C° 0 mm 1 mps 628 mmHg 58%

    30 June, Sunday

    Time Temperature Precipitation Wind Pressure Humidity
    00:00 +20°C° 0 mm 1 mps 629 mmHg 55%
    01:00 +19°C° 0 mm 1 mps 628 mmHg 54%
    02:00 +19°C° 0 mm 1 mps 628 mmHg 52%
    03:00 +19°C° 0 mm 1 mps 628 mmHg 50%
    04:00 +20°C° 0 mm 1 mps 629 mmHg 50%
    05:00 +21°C° 0 mm 1 mps 629 mmHg 49%
    06:00 +22°C° 0 mm 1 mps 630 mmHg 49%
    07:00 +24°C° 0 mm 1 mps 631 mmHg 42%
    08:00 +27°C° 0 mm 1 mps 632 mmHg 35%
    09:00 +29°C° 0 mm 1 mps 633 mmHg 28%
    10:00 +30°C° 0 mm 1 mps 633 mmHg 27%
    11:00 +31°C° 0 mm 1 mps 633 mmHg 25%
    12:00 +32°C° 0 mm 1 mps 633 mmHg 24%
    13:00 +30°C° 0.1 mm 2 mps 632 mmHg 30%
    14:00 +29°C° 0.1 mm 2 mps 631 mmHg 36%
    15:00 +27°C° 0.1 mm 2 mps 630 mmHg 42%
    16:00 +24°C° 1.9 mm 2 mps 629 mmHg 56%
    17:00 +19°C° 1.9 mm 2 mps 628 mmHg 70%
    18:00 +16°C° 1.9 mm 2 mps 627 mmHg 84%
    19:00 +17°C° 0 mm 2 mps 628 mmHg 74%
    20:00 +17°C° 0 mm 2 mps 628 mmHg 63%
    21:00 +18°C° 0 mm 2 mps 628 mmHg 53%
    22:00 +18°C° 0 mm 2 mps 628 mmHg 50%
    23:00 +18°C° 0 mm 2 mps 628 mmHg 48%
    Show more